Beaufort MCAS, SC

4:59 AM EDT on September 20, 2017 (GMT -0400)
Beaufort Marine Corps Air Station

Weather History for KNBC - June, 2012

Change the Weather History Date:

Tuesday, June 26, 2012

  Actual Average Record
Temperature  
Mean Temperature 72 °F -  
Max Temperature 77 °F 88 °F 105 °F (1952)
Min Temperature 66 °F 71 °F 62 °F (1979)
Cooling Degree Days 6    
Growing Degree Days 22 (Base 50)    
Moisture  
Dew Point 61 °F    
Average Humidity 69    
Maximum Humidity 90    
Minimum Humidity 32    
Precipitation  
Precipitation 0.12 in - - ()
Sea Level Pressure  
Sea Level Pressure 29.75 in    
Wind  
Wind Speed 6 mph (NE)    
Max Wind Speed 18 mph    
Max Gust Speed 31 mph    
Visibility 8 miles    
Events Rain    
Averages and records for this station are not official NWS values.
T = Trace of Precipitation, MM = Missing Value Source: NWS Daily Summary

Daily Weather History Graph

Daily Weather History Graph

Search for Another Location

Airport or City:

Trip Planner

Search our weather history database for the weather conditions in past years. The results will help you decide how hot, cold, wet, or windy it might be!

Date:

Astronomy

Jun. 26, 2012 Rise Set
Actual Time 6:17 AM EDT 8:34 PM EDT
Civil Twilight 5:49 AM EDT 9:02 PM EDT
Nautical Twilight 5:14 AM EDT 9:37 PM EDT
Astronomical Twilight 4:36 AM EDT 10:15 PM EDT
Moon 1:06 PM EDT (6/26) 12:24 AM EDT (6/26)
Length of Visible Light 15h 13m
Length of Day
14h 16m
Waxing Crescent, 45% of the Moon is Illuminated
Jun 26
Waxing Crescent
Jun 26
First Quarter
Jul 3
Full
Jul 10
Last Quarter
Jul 19
New

Hourly Weather History & Observations

Time (EDT) Temp. Dew Point Humidity Pressure Visibility Wind Dir Wind Speed Gust Speed Precip Events Conditions
12:56 AM 75.9 °F 68.0 °F 76% 29.71 in 10.0 mi Calm Calm - N/A   Overcast
1:37 AM 75.2 °F 71.6 °F 89% 29.71 in 10.0 mi Calm Calm - N/A   Overcast
1:44 AM 75.2 °F 69.8 °F 83% 29.71 in 10.0 mi Calm Calm - N/A   Overcast
1:56 AM 75.9 °F 68.0 °F 76% 29.71 in 10.0 mi Calm Calm - N/A   Overcast
2:56 AM 77.0 °F 45.0 °F 32% 29.69 in 10.0 mi Calm Calm - 0.00 in   Mostly Cloudy
3:56 AM 77.0 °F 60.1 °F 56% 29.70 in 10.0 mi NNW 4.6 mph - N/A   Mostly Cloudy
4:30 AM 75.2 °F 57.2 °F 53% 29.70 in 10.0 mi NE 3.5 mph - 0.00 in Rain Light Rain
4:53 AM 75.2 °F 66.2 °F 73% 29.69 in 10.0 mi ENE 5.8 mph - 0.00 in   Overcast
4:56 AM 75.9 °F 69.1 °F 79% 29.69 in 10.0 mi ENE 5.8 mph - 0.00 in   Overcast
5:56 AM 75.9 °F 62.1 °F 62% 29.70 in 10.0 mi Calm Calm - 0.01 in   Overcast
6:56 AM 75.0 °F 64.9 °F 71% 29.71 in 10.0 mi Calm Calm - 0.00 in   Mostly Cloudy
7:28 AM 75.2 °F 59.0 °F 57% 29.71 in 10.0 mi NNE 4.6 mph - N/A   Overcast
7:56 AM 75.0 °F 66.0 °F 73% 29.73 in 10.0 mi ENE 4.6 mph - N/A   Overcast
8:03 AM 75.2 °F 57.2 °F 53% 29.72 in 10.0 mi ENE 3.5 mph - N/A   Overcast
8:16 AM 75.2 °F 55.4 °F 50% 29.73 in 10.0 mi NE 5.8 mph - N/A   Overcast
8:53 AM 75.2 °F 55.4 °F 50% 29.74 in 4.0 mi ENE 3.5 mph - 0.00 in Rain Light Rain
8:56 AM 75.0 °F 52.0 °F 44% 29.74 in 4.0 mi ENE 3.5 mph - 0.00 in Rain Light Rain
9:03 AM 75.2 °F 46.4 °F 36% 29.74 in 9.0 mi ENE 4.6 mph - 0.00 in   Overcast
9:13 AM 75.2 °F 55.4 °F 50% 29.74 in 10.0 mi ENE 3.5 mph - 0.01 in   Overcast
9:56 AM 75.0 °F 66.9 °F 76% 29.74 in 4.0 mi ENE 10.4 mph - 0.01 in Rain Light Rain
10:54 AM 73.4 °F 59.0 °F 61% 29.75 in 6.0 mi NNE 11.5 mph 20.7 mph 0.02 in Rain Light Rain
10:56 AM 73.0 °F 64.9 °F 76% 29.75 in 7.0 mi NNE 12.7 mph - 0.02 in Rain Light Rain
11:36 AM 71.6 °F 68.0 °F 88% 29.76 in 4.0 mi NE 9.2 mph 20.7 mph 0.00 in Rain Light Rain
11:56 AM 73.0 °F 64.9 °F 76% 29.76 in 4.0 mi NE 11.5 mph 20.7 mph 0.00 in Rain Light Rain
12:03 PM 71.6 °F 57.2 °F 60% 29.76 in 8.0 mi NE 11.5 mph 20.7 mph 0.00 in Rain Light Rain
12:56 PM 70.0 °F 66.9 °F 90% 29.77 in 4.0 mi ENE 15.0 mph 25.3 mph 0.06 in Rain Light Rain
1:40 PM 68.0 °F 62.6 °F 83% 29.77 in 4.0 mi ENE 16.1 mph 31.1 mph 0.01 in Rain Light Rain
1:56 PM 68.0 °F 63.0 °F 84% 29.78 in 4.0 mi ENE 16.1 mph 31.1 mph 0.01 in Rain Light Rain
2:56 PM 68.0 °F 63.0 °F 84% 29.78 in 10.0 mi ENE 17.3 mph 21.9 mph 0.01 in Rain Light Rain
3:03 PM 68.0 °F 62.6 °F 83% 29.78 in 10.0 mi ENE 11.5 mph 24.2 mph 0.00 in Rain Light Rain
3:11 PM 66.2 °F 62.6 °F 88% 29.78 in 10.0 mi ENE 15.0 mph 21.9 mph 0.00 in Rain Light Rain
3:47 PM 66.2 °F 60.8 °F 83% 29.78 in 10.0 mi ENE 15.0 mph 23.0 mph 0.00 in Rain Light Rain
3:56 PM 66.9 °F 61.0 °F 81% 29.78 in 5.0 mi ENE 16.1 mph 26.5 mph 0.00 in Rain Light Rain
4:03 PM 66.2 °F 60.8 °F 83% 29.77 in 9.0 mi ENE 16.1 mph 26.5 mph 0.00 in Rain Light Rain
4:23 PM 68.0 °F 60.8 °F 78% 29.76 in 10.0 mi NE 18.4 mph 25.3 mph 0.00 in Rain Light Rain
4:56 PM 70.0 °F 61.0 °F 73% 29.76 in 10.0 mi ENE 13.8 mph 21.9 mph 0.00 in Rain Light Rain
5:03 PM 69.8 °F 60.8 °F 73% 29.76 in 10.0 mi East 13.8 mph 21.9 mph 0.00 in Rain Light Rain
5:56 PM 72.0 °F 61.0 °F 68% 29.75 in 10.0 mi ENE 13.8 mph 21.9 mph 0.00 in Rain Light Rain
6:56 PM 73.9 °F 61.0 °F 64% 29.73 in 10.0 mi NE 16.1 mph 23.0 mph 0.00 in Rain Light Rain
7:56 PM 73.0 °F 59.0 °F 61% 29.76 in 10.0 mi ENE 10.4 mph 23.0 mph 0.00 in Rain Light Rain
8:56 PM 71.1 °F 59.0 °F 66% 29.79 in 10.0 mi ENE 11.5 mph 18.4 mph 0.00 in Rain Light Rain
9:56 PM 71.1 °F 60.1 °F 68% 29.79 in 10.0 mi NE 10.4 mph - 0.00 in Rain Light Rain
10:56 PM 71.1 °F 57.9 °F 63% 29.80 in 10.0 mi NE 13.8 mph 20.7 mph 0.00 in Rain Light Rain
11:56 PM 70.0 °F 55.9 °F 61% 29.81 in 10.0 mi NE 15.0 mph 20.7 mph 0.00 in Rain Light Rain